Simultaneous Nadir Overpasses (SNOs) Predictions

Prediction of SNOs between METOP-A and NOAA-19 Satellite Orbit:

Table of predicted SNOs for the next 14.0 days since TLE Epoch: 10/3/2020
Index Date (METOP-A) Time (METOP-A) Lat,Lon (METOP-A) SZA (METOP-A ) Date (NOAA-19) Time (NOAA-19) Lat,Lon (NOAA-19) SZA (NOAA-19 ) Distance(km) Time Diff (sec)
1 10/13/2020 02:19:24 -80.71, -21.72 91.07 10/13/2020 02:18:23 -80.72, -21.60 91.06 2.77 61
2 10/13/2020 03:10:04 80.71, 145.70 88.96 10/13/2020 03:09:25 80.72, 145.59 88.96 2.30 39
3 10/13/2020 04:00:45 -80.72, -46.86 91.02 10/13/2020 04:00:23 -80.72, -46.91 91.03 1.12 22
4 10/13/2020 04:51:26 80.70, 120.23 88.97 10/13/2020 04:51:25 80.72, 120.27 88.99 1.94 1
5 10/13/2020 05:42:07 -80.71, -72.33 91.00 10/13/2020 05:42:23 -80.71, -72.23 91.00 1.82 16
6 10/13/2020 06:32:47 80.72, 95.09 89.02 10/13/2020 06:33:25 80.71, 94.96 89.02 2.48 38
7 10/13/2020 07:23:29 -80.70, -97.80 90.99 10/13/2020 07:24:24 -80.72, -97.90 90.97 2.45 55
